Time,TemperatureF,DewpointF,PressureIn,WindDirection,WindDirectionDegrees,WindSpeedMPH,WindSpeedGustMPH,Humidity,HourlyPrecipIn,Conditions,Clouds,dailyrainin,SoftwareType,DateUTC
2013-03-28 00:00:00,29.3,18.6,29.93,NNW,327,0.0,0.0,64,0.00,,OVC055,0.00,VWS V14.01,2013-03-28 04:00:00,
2013-03-28 00:01:00,29.3,18.6,29.93,NNW,327,0.0,0.0,64,0.00,,OVC055,0.00,VWS V14.01,2013-03-28 04:01:00,
2013-03-28 00:06:00,28.9,18.3,29.96,NNW,327,0.0,0.0,64,0.00,,OVC055,0.00,VWS V14.01,2013-03-28 04:06:00,
2013-03-28 00:11:00,28.9,18.3,29.96,NNW,327,0.0,0.0,64,0.00,,OVC055,0.00,VWS V14.01,2013-03-28 04:11:00,
2013-03-28 00:17:00,28.9,18.3,29.96,NNW,327,0.0,0.0,64,0.00,,OVC055,0.00,VWS V14.01,2013-03-28 04:17:00,
2013-03-28 00:22:00,28.6,18.7,29.96,NNW,327,0.0,0.0,66,0.00,,OVC055,0.00,VWS V14.01,2013-03-28 04:22:00,
2013-03-28 00:27:00,28.6,18.7,29.96,NNW,327,0.0,0.0,66,0.00,,OVC055,0.00,VWS V14.01,2013-03-28 04:27:00,
2013-03-28 00:32:00,28.4,18.9,29.96,NNW,327,0.0,0.0,67,0.00,,OVC055,0.00,VWS V14.01,2013-03-28 04:32:00,
2013-03-28 00:37:00,28.4,18.9,29.96,NNW,327,0.0,0.0,67,0.00,,OVC055,0.00,VWS V14.01,2013-03-28 04:37:00,
2013-03-28 00:42:00,28.4,18.9,29.96,NNW,327,0.0,0.0,67,0.00,,OVC050,0.00,VWS V14.01,2013-03-28 04:42:00,
2013-03-28 00:47:00,28.2,19.4,29.96,NNW,327,0.0,0.0,69,0.00,,OVC050,0.00,VWS V14.01,2013-03-28 04:47:00,
2013-03-28 00:52:00,28.2,19.4,29.96,NNW,327,0.0,0.0,69,0.00,,OVC050,0.00,VWS V14.01,2013-03-28 04:52:00,
2013-03-28 00:57:00,28.2,19.7,29.96,NNW,327,0.0,0.0,70,0.00,,OVC050,0.00,VWS V14.01,2013-03-28 04:57:00,
2013-03-28 01:02:00,28.2,19.7,29.96,NNW,327,0.0,0.0,70,0.00,,OVC050,0.00,VWS V14.01,2013-03-28 05:02:00,
2013-03-28 01:07:00,28.2,19.7,29.96,NNW,327,0.0,0.0,70,0.00,,OVC050,0.00,VWS V14.01,2013-03-28 05:07:00,
2013-03-28 01:12:00,28.2,19.7,29.96,NNW,327,0.0,0.0,70,0.00,,OVC050,0.00,VWS V14.01,2013-03-28 05:12:00,
2013-03-28 01:17:00,28.8,20.9,29.96,NNW,327,0.0,0.0,72,0.00,,OVC050,0.00,VWS V14.01,2013-03-28 05:17:00,
2013-03-28 01:22:00,28.8,20.9,29.96,NNW,327,0.0,0.0,72,0.00,,OVC050,0.00,VWS V14.01,2013-03-28 05:22:00,
2013-03-28 01:27:00,28.8,20.9,29.96,NNW,327,0.0,0.0,72,0.00,,OVC050,0.00,VWS V14.01,2013-03-28 05:27:00,
2013-03-28 01:32:00,28.8,20.9,29.96,NNW,327,0.0,0.0,72,0.00,,OVC050,0.00,VWS V14.01,2013-03-28 05:32:00,
2013-03-28 01:37:00,29.1,21.6,29.96,NNW,327,0.0,0.0,73,0.00,,OVC050,0.00,VWS V14.01,2013-03-28 05:37:00,
2013-03-28 01:42:00,29.1,21.6,29.96,NNW,327,0.0,0.0,73,0.00,,OVC060,0.00,VWS V14.01,2013-03-28 05:42:00,
2013-03-28 01:47:00,29.1,21.6,29.96,NNW,327,0.0,0.0,73,0.00,,OVC060,0.00,VWS V14.01,2013-03-28 05:47:00,
2013-03-28 01:52:00,29.1,21.6,29.96,NNW,327,0.0,0.0,73,0.00,,OVC060,0.00,VWS V14.01,2013-03-28 05:52:00,
2013-03-28 01:57:00,29.1,21.6,29.96,NNW,327,0.0,0.0,73,0.00,,OVC060,0.00,VWS V14.01,2013-03-28 05:57:00,
2013-03-28 02:02:00,29.3,22.1,29.96,NNW,327,0.0,0.0,74,0.00,,OVC060,0.00,VWS V14.01,2013-03-28 06:02:00,
2013-03-28 02:07:00,29.3,22.1,29.96,NNW,327,0.0,0.0,74,0.00,,OVC060,0.00,VWS V14.01,2013-03-28 06:07:00,
2013-03-28 02:12:00,29.3,22.1,29.96,NNW,327,0.0,0.0,74,0.00,,OVC060,0.00,VWS V14.01,2013-03-28 06:12:00,
2013-03-28 02:18:00,29.3,22.1,29.96,NNW,327,0.0,0.0,74,0.00,,OVC060,0.00,VWS V14.01,2013-03-28 06:18:00,
2013-03-28 02:23:00,29.3,22.4,29.96,NNW,327,0.0,0.0,75,0.00,,OVC060,0.00,VWS V14.01,2013-03-28 06:23:00,
2013-03-28 02:28:00,29.1,22.2,29.96,NNW,327,0.0,0.0,75,0.00,,OVC060,0.00,VWS V14.01,2013-03-28 06:28:00,
2013-03-28 02:33:00,29.1,22.2,29.96,NNW,327,0.0,0.0,75,0.00,,OVC060,0.00,VWS V14.01,2013-03-28 06:33:00,
2013-03-28 02:38:00,29.1,22.2,29.96,NNW,327,0.0,0.0,75,0.00,,OVC060,0.00,VWS V14.01,2013-03-28 06:38:00,
2013-03-28 02:43:00,29.1,22.2,29.96,NNW,327,0.0,0.0,75,0.00,,,0.00,VWS V14.01,2013-03-28 06:43:00,
2013-03-28 02:48:00,29.1,22.2,29.96,NNW,327,0.0,0.0,75,0.00,,,0.00,VWS V14.01,2013-03-28 06:48:00,
2013-03-28 02:53:00,29.1,22.2,29.96,NNW,327,0.0,0.0,75,0.00,,,0.00,VWS V14.01,2013-03-28 06:53:00,
2013-03-28 02:58:00,29.1,22.2,29.96,NNW,327,0.0,0.0,75,0.00,,,0.00,VWS V14.01,2013-03-28 06:58:00,
2013-03-28 03:03:00,29.1,22.2,29.96,NNW,327,0.0,0.0,75,0.00,,,0.00,VWS V14.01,2013-03-28 07:03:00,
2013-03-28 03:08:00,29.1,22.5,29.96,NNW,327,0.0,0.0,76,0.00,,,0.00,VWS V14.01,2013-03-28 07:08:00,
2013-03-28 03:13:00,29.1,22.5,29.96,NNW,327,0.0,0.0,76,0.00,,,0.00,VWS V14.01,2013-03-28 07:13:00,
2013-03-28 03:18:00,29.1,22.5,29.96,NNW,327,0.0,0.0,76,0.00,,,0.00,VWS V14.01,2013-03-28 07:18:00,
2013-03-28 03:23:00,29.1,22.5,29.96,NNW,327,0.0,0.0,76,0.00,,,0.00,VWS V14.01,2013-03-28 07:23:00,
2013-03-28 03:28:00,29.1,22.5,29.96,NNW,327,0.0,0.0,76,0.00,,,0.00,VWS V14.01,2013-03-28 07:28:00,
2013-03-28 03:33:00,29.1,22.5,29.96,NNW,327,0.0,0.0,76,0.00,,,0.00,VWS V14.01,2013-03-28 07:33:00,
2013-03-28 03:38:00,29.1,22.8,29.96,NNW,327,0.0,0.0,77,0.00,,,0.00,VWS V14.01,2013-03-28 07:38:00,
2013-03-28 03:43:00,29.1,22.8,29.96,NNW,327,0.0,0.0,77,0.00,,OVC040,0.00,VWS V14.01,2013-03-28 07:43:00,
2013-03-28 03:48:00,29.1,22.8,29.96,NNW,327,0.0,0.0,77,0.00,,OVC040,0.00,VWS V14.01,2013-03-28 07:48:00,
2013-03-28 03:53:00,29.1,22.8,29.96,NNW,327,0.0,0.0,77,0.00,,OVC040,0.00,VWS V14.01,2013-03-28 07:53:00,
2013-03-28 03:58:00,29.3,23.0,29.96,NNW,327,0.0,0.0,77,0.00,,OVC040,0.00,VWS V14.01,2013-03-28 07:58:00,
2013-03-28 04:03:00,29.3,23.0,29.96,NNW,327,0.0,0.0,77,0.00,,OVC040,0.00,VWS V14.01,2013-03-28 08:03:00,
2013-03-28 04:08:00,29.3,23.0,29.96,NNW,327,0.0,0.0,77,0.00,,OVC040,0.00,VWS V14.01,2013-03-28 08:08:00,
2013-03-28 04:13:00,29.3,23.0,29.96,NNW,327,0.0,0.0,77,0.00,,OVC040,0.00,VWS V14.01,2013-03-28 08:13:00,
2013-03-28 04:18:00,29.3,23.0,29.96,NNW,327,0.0,0.0,77,0.00,,OVC040,0.00,VWS V14.01,2013-03-28 08:18:00,
2013-03-28 04:23:00,29.3,23.0,29.96,NNW,327,0.0,0.0,77,0.00,,OVC040,0.00,VWS V14.01,2013-03-28 08:23:00,
2013-03-28 04:28:00,29.1,22.8,29.96,NNW,327,0.0,0.0,77,0.00,,OVC040,0.00,VWS V14.01,2013-03-28 08:28:00,
2013-03-28 04:33:00,29.1,22.8,29.96,NNW,327,0.0,0.0,77,0.00,,OVC040,0.00,VWS V14.01,2013-03-28 08:33:00,
2013-03-28 04:38:00,29.1,22.8,29.96,NNW,327,0.0,0.0,77,0.00,,OVC040,0.00,VWS V14.01,2013-03-28 08:38:00,
2013-03-28 04:43:00,29.1,22.8,29.96,NNW,327,0.0,0.0,77,0.00,,,0.00,VWS V14.01,2013-03-28 08:43:00,
2013-03-28 04:48:00,28.9,23.0,29.96,NNW,327,0.0,0.0,78,0.00,,,0.00,VWS V14.01,2013-03-28 08:48:00,
2013-03-28 04:53:00,28.9,23.0,29.96,NNW,327,0.0,0.0,78,0.00,,,0.00,VWS V14.01,2013-03-28 08:53:00,
2013-03-28 04:58:00,28.9,23.0,29.96,NNW,327,0.0,0.0,78,0.00,,,0.00,VWS V14.01,2013-03-28 08:58:00,
2013-03-28 05:04:00,28.9,23.0,29.96,NNW,327,0.0,0.0,78,0.00,,,0.00,VWS V14.01,2013-03-28 09:04:00,
2013-03-28 05:09:00,28.9,23.0,29.96,NNW,327,0.0,0.0,78,0.00,,,0.00,VWS V14.01,2013-03-28 09:09:00,
2013-03-28 05:14:00,28.8,22.8,29.96,NNW,327,0.0,0.0,78,0.00,,,0.00,VWS V14.01,2013-03-28 09:14:00,
2013-03-28 05:19:00,28.8,22.8,29.96,NNW,327,0.0,0.0,78,0.00,,,0.00,VWS V14.01,2013-03-28 09:19:00,
2013-03-28 05:24:00,28.8,22.8,29.96,NNW,327,0.0,0.0,78,0.00,,,0.00,VWS V14.01,2013-03-28 09:24:00,
2013-03-28 05:29:00,28.8,22.8,29.96,NNW,327,0.0,0.0,78,0.00,,,0.00,VWS V14.01,2013-03-28 09:29:00,
2013-03-28 05:34:00,28.6,22.9,29.96,NNW,327,0.0,0.0,79,0.00,,,0.00,VWS V14.01,2013-03-28 09:34:00,
2013-03-28 05:39:00,28.6,22.9,29.96,NNW,327,0.0,0.0,79,0.00,,,0.00,VWS V14.01,2013-03-28 09:39:00,
2013-03-28 05:44:00,28.6,22.9,29.96,NNW,327,0.0,0.0,79,0.00,,,0.00,VWS V14.01,2013-03-28 09:44:00,
2013-03-28 05:49:00,28.6,22.9,29.96,NNW,327,0.0,0.0,79,0.00,,,0.00,VWS V14.01,2013-03-28 09:49:00,
2013-03-28 05:54:00,28.6,22.9,29.96,NNW,327,0.0,0.0,79,0.00,,,0.00,VWS V14.01,2013-03-28 09:54:00,
2013-03-28 05:59:00,28.0,22.7,29.96,NNW,327,0.0,0.0,80,0.00,,,0.00,VWS V14.01,2013-03-28 09:59:00,
2013-03-28 06:04:00,28.0,22.7,29.96,NNW,327,0.0,0.0,80,0.00,,,0.00,VWS V14.01,2013-03-28 10:04:00,
2013-03-28 06:09:00,28.0,22.7,29.96,NNW,327,0.0,0.0,80,0.00,,,0.00,VWS V14.01,2013-03-28 10:09:00,
2013-03-28 06:14:00,28.0,22.7,29.96,NNW,327,0.0,0.0,80,0.00,,,0.00,VWS V14.01,2013-03-28 10:14:00,
2013-03-28 06:19:00,28.0,22.7,29.96,NNW,327,0.0,0.0,80,0.00,,,0.00,VWS V14.01,2013-03-28 10:19:00,
2013-03-28 06:24:00,27.9,22.5,29.96,NNW,327,0.0,0.0,80,0.00,,,0.00,VWS V14.01,2013-03-28 10:24:00,
2013-03-28 06:29:00,27.9,22.5,29.96,NNW,327,0.0,0.0,80,0.00,,,0.00,VWS V14.01,2013-03-28 10:29:00,
2013-03-28 06:34:00,27.9,22.5,29.96,NNW,327,0.0,0.0,80,0.00,,,0.00,VWS V14.01,2013-03-28 10:34:00,
2013-03-28 06:39:00,27.9,22.5,29.96,NNW,327,0.0,0.0,80,0.00,,,0.00,VWS V14.01,2013-03-28 10:39:00,
2013-03-28 06:44:00,27.9,22.8,29.96,NNW,327,0.0,0.0,81,0.00,,,0.00,VWS V14.01,2013-03-28 10:44:00,
2013-03-28 06:49:00,27.9,22.8,29.96,NNW,327,0.0,0.0,81,0.00,,,0.00,VWS V14.01,2013-03-28 10:49:00,
2013-03-28 06:54:00,27.9,22.8,29.96,NNW,327,0.0,0.0,81,0.00,,,0.00,VWS V14.01,2013-03-28 10:54:00,
2013-03-28 06:59:00,27.9,22.8,29.96,NNW,327,0.0,0.0,81,0.00,,,0.00,VWS V14.01,2013-03-28 10:59:00,
2013-03-28 07:04:00,27.9,22.8,29.96,NNW,327,0.0,0.0,81,0.00,,,0.00,VWS V14.01,2013-03-28 11:04:00,
2013-03-28 07:09:00,28.4,23.6,29.96,NNW,327,0.0,0.0,82,0.00,,,0.00,VWS V14.01,2013-03-28 11:09:00,
2013-03-28 07:14:00,28.6,23.8,29.96,NNW,327,0.0,0.0,82,0.00,,,0.00,VWS V14.01,2013-03-28 11:14:00,
2013-03-28 07:19:00,28.6,23.8,29.96,NNW,327,0.0,0.0,82,0.00,,,0.00,VWS V14.01,2013-03-28 11:19:00,
2013-03-28 07:24:00,28.6,23.8,29.96,NNW,327,0.0,0.0,82,0.00,,,0.00,VWS V14.01,2013-03-28 11:24:00,
2013-03-28 07:29:00,28.6,23.8,29.96,NNW,327,0.0,0.0,82,0.00,,,0.00,VWS V14.01,2013-03-28 11:29:00,
2013-03-28 07:34:00,29.3,24.8,29.96,NNW,327,0.0,0.0,83,0.00,,,0.00,VWS V14.01,2013-03-28 11:34:00,
2013-03-28 07:39:00,29.3,24.8,29.96,NNW,327,0.0,0.0,83,0.00,,,0.00,VWS V14.01,2013-03-28 11:39:00,
2013-03-28 07:44:00,29.3,24.8,29.96,NNW,327,0.0,0.0,83,0.00,,OVC022,0.00,VWS V14.01,2013-03-28 11:44:00,
2013-03-28 07:49:00,29.3,24.8,29.96,NNW,327,0.0,0.0,83,0.00,,OVC022,0.00,VWS V14.01,2013-03-28 11:49:00,
2013-03-28 07:54:00,30.4,26.1,29.96,NNW,327,0.0,0.0,84,0.00,,,0.00,VWS V14.01,2013-03-28 11:54:00,
2013-03-28 07:59:00,30.7,26.5,29.96,NNW,327,0.0,0.0,84,0.00,,,0.00,VWS V14.01,2013-03-28 11:59:00,
2013-03-28 08:04:00,31.1,27.1,29.96,NNW,327,0.0,0.0,85,0.00,,,0.00,VWS V14.01,2013-03-28 12:04:00,
2013-03-28 08:09:00,31.1,27.1,29.96,NNW,327,0.0,0.0,85,0.00,,,0.00,VWS V14.01,2013-03-28 12:09:00,
2013-03-28 08:14:00,31.1,27.1,29.96,NNW,327,0.0,0.0,85,0.00,,,0.00,VWS V14.01,2013-03-28 12:14:00,
2013-03-28 08:19:00,31.8,27.8,29.98,NNW,327,0.0,0.0,85,0.00,,,0.00,VWS V14.01,2013-03-28 12:19:00,
2013-03-28 08:24:00,31.8,27.8,29.98,NNW,327,0.0,0.0,85,0.00,,,0.00,VWS V14.01,2013-03-28 12:24:00,
2013-03-28 08:29:00,31.8,27.8,29.98,South,169,0.0,0.0,85,0.00,,,0.00,VWS V14.01,2013-03-28 12:29:00,
2013-03-28 08:34:00,31.8,27.8,29.98,SW,217,0.0,0.0,85,0.00,,,0.00,VWS V14.01,2013-03-28 12:34:00,
2013-03-28 08:39:00,31.8,27.8,29.98,SW,233,0.0,0.0,85,0.00,,,0.00,VWS V14.01,2013-03-28 12:39:00,
2013-03-28 08:44:00,32.4,28.4,29.98,South,174,0.0,0.0,85,0.00,,,0.00,VWS V14.01,2013-03-28 12:44:00,
2013-03-28 08:49:00,32.4,28.4,29.98,South,176,0.0,0.0,85,0.00,,,0.00,VWS V14.01,2013-03-28 12:49:00,
2013-03-28 08:55:00,32.4,28.4,29.98,South,191,0.0,0.0,85,0.00,,,0.00,VWS V14.01,2013-03-28 12:55:00,
2013-03-28 09:00:00,32.4,28.4,29.98,South,191,0.0,0.0,85,0.00,,,0.00,VWS V14.01,2013-03-28 13:00:00,
2013-03-28 09:05:00,33.1,29.1,29.98,South,181,0.0,0.0,85,0.00,,,0.00,VWS V14.01,2013-03-28 13:05:00,
2013-03-28 09:10:00,33.1,29.1,29.98,South,179,0.0,0.0,85,0.00,,,0.00,VWS V14.01,2013-03-28 13:10:00,
2013-03-28 09:15:00,33.1,29.1,29.98,SSW,195,0.0,0.0,85,0.00,,,0.00,VWS V14.01,2013-03-28 13:15:00,
2013-03-28 09:20:00,33.1,29.1,29.98,South,173,0.0,0.0,85,0.00,,,0.00,VWS V14.01,2013-03-28 13:20:00,
2013-03-28 09:25:00,33.1,29.1,29.98,South,173,0.0,0.0,85,0.00,,,0.00,VWS V14.01,2013-03-28 13:25:00,
2013-03-28 09:30:00,34.0,29.7,29.98,South,171,0.0,2.2,84,0.00,,,0.00,VWS V14.01,2013-03-28 13:30:00,
2013-03-28 09:35:00,34.0,29.4,29.98,South,171,0.0,0.0,83,0.00,,,0.00,VWS V14.01,2013-03-28 13:35:00,
2013-03-28 09:40:00,34.0,29.4,29.98,South,174,0.0,0.0,83,0.00,,,0.00,VWS V14.01,2013-03-28 13:40:00,
2013-03-28 09:45:00,34.0,29.4,29.98,South,184,0.0,0.0,83,0.00,,,0.00,VWS V14.01,2013-03-28 13:45:00,
2013-03-28 09:50:00,34.0,29.4,29.98,South,191,0.0,0.0,83,0.00,,,0.00,VWS V14.01,2013-03-28 13:50:00,
2013-03-28 09:55:00,34.3,29.7,29.98,South,191,0.0,0.0,83,0.00,,,0.00,VWS V14.01,2013-03-28 13:55:00,
2013-03-28 10:00:00,34.2,29.2,29.98,SSW,196,0.0,0.0,82,0.00,,,0.00,VWS V14.01,2013-03-28 14:00:00,
2013-03-28 10:05:00,34.2,29.2,29.98,South,174,0.0,0.0,82,0.00,,,0.00,VWS V14.01,2013-03-28 14:05:00,
2013-03-28 10:10:00,34.2,29.2,29.98,South,174,0.0,0.0,82,0.00,,,0.00,VWS V14.01,2013-03-28 14:10:00,
2013-03-28 10:15:00,34.2,29.2,29.98,South,173,0.0,0.0,82,0.00,,,0.00,VWS V14.01,2013-03-28 14:15:00,
2013-03-28 10:20:00,34.5,29.6,29.98,South,180,0.0,0.0,82,0.00,,,0.00,VWS V14.01,2013-03-28 14:20:00,
2013-03-28 10:25:00,34.5,29.6,29.98,SSE,163,0.0,0.0,82,0.00,,,0.00,VWS V14.01,2013-03-28 14:25:00,
2013-03-28 10:30:00,34.5,29.6,29.98,SSW,194,0.0,0.0,82,0.00,,,0.00,VWS V14.01,2013-03-28 14:30:00,
2013-03-28 10:35:00,34.5,29.6,29.98,South,179,0.0,0.0,82,0.00,,,0.00,VWS V14.01,2013-03-28 14:35:00,
2013-03-28 10:40:00,35.2,30.0,29.98,South,179,0.0,0.0,81,0.00,,,0.00,VWS V14.01,2013-03-28 14:40:00,
2013-03-28 10:45:00,35.2,30.0,29.98,South,179,0.0,0.0,81,0.00,,,0.00,VWS V14.01,2013-03-28 14:45:00,
2013-03-28 10:50:00,35.6,29.7,29.98,North,357,3.6,3.6,79,0.00,,,0.00,VWS V14.01,2013-03-28 14:50:00,
2013-03-28 10:55:00,35.6,29.7,29.98,North,353,0.0,0.0,79,0.00,,,0.00,VWS V14.01,2013-03-28 14:55:00,
2013-03-28 11:00:00,35.6,29.7,29.98,NNW,337,0.0,0.0,79,0.00,,,0.00,VWS V14.01,2013-03-28 15:00:00,
2013-03-28 11:05:00,35.2,28.8,30.01,NNE,13,0.0,0.0,77,0.00,,,0.00,VWS V14.01,2013-03-28 15:05:00,
2013-03-28 11:10:00,35.2,28.8,30.01,SSW,196,0.0,0.0,77,0.00,,,0.00,VWS V14.01,2013-03-28 15:10:00,
2013-03-28 11:15:00,35.6,28.8,30.01,SSW,196,0.0,0.0,76,0.00,,,0.00,VWS V14.01,2013-03-28 15:15:00,
2013-03-28 11:20:00,35.6,28.8,30.01,SSW,196,0.0,0.0,76,0.00,,,0.00,VWS V14.01,2013-03-28 15:20:00,
2013-03-28 11:25:00,36.9,30.3,30.01,SSW,196,0.0,0.0,77,0.00,,,0.00,VWS V14.01,2013-03-28 15:25:00,
2013-03-28 11:30:00,36.9,30.3,30.01,NNE,24,0.0,0.0,77,0.00,,,0.00,VWS V14.01,2013-03-28 15:30:00,
2013-03-28 11:35:00,36.9,30.3,30.01,ENE,74,0.0,0.0,77,0.00,,,0.00,VWS V14.01,2013-03-28 15:35:00,
2013-03-28 11:40:00,36.9,30.3,30.01,NNW,331,2.7,2.7,77,0.00,,,0.00,VWS V14.01,2013-03-28 15:40:00,
2013-03-28 11:45:00,36.9,30.3,30.01,NNE,15,4.0,4.0,77,0.00,,,0.00,VWS V14.01,2013-03-28 15:45:00,
2013-03-28 11:50:00,37.6,30.4,30.01,North,0,3.6,3.6,75,0.00,,,0.00,VWS V14.01,2013-03-28 15:50:00,
2013-03-28 11:55:00,37.4,30.2,30.01,North,353,5.8,5.8,75,0.00,,OVC011,0.00,VWS V14.01,2013-03-28 15:55:00,
2013-03-28 12:00:00,37.6,30.4,30.01,WNW,287,0.0,0.0,75,0.00,,OVC011,0.00,VWS V14.01,2013-03-28 16:00:00,
2013-03-28 12:05:00,37.6,30.4,30.01,North,5,4.0,4.0,75,0.00,,OVC011,0.00,VWS V14.01,2013-03-28 16:05:00,
2013-03-28 12:10:00,38.1,30.9,30.01,NNE,13,0.0,0.0,75,0.00,,OVC011,0.00,VWS V14.01,2013-03-28 16:10:00,
2013-03-28 12:15:00,38.7,31.4,30.01,North,3,0.0,0.0,75,0.00,,OVC011,0.00,VWS V14.01,2013-03-28 16:15:00,
2013-03-28 12:20:00,38.7,31.4,30.01,North,3,0.0,0.0,75,0.00,,OVC011,0.00,VWS V14.01,2013-03-28 16:20:00,
2013-03-28 12:25:00,39.4,31.5,30.01,NNW,348,5.4,5.4,73,0.00,,OVC011,0.00,VWS V14.01,2013-03-28 16:25:00,
2013-03-28 12:30:00,39.4,31.5,30.01,SSE,167,0.0,4.0,73,0.00,,OVC011,0.00,VWS V14.01,2013-03-28 16:30:00,
2013-03-28 12:35:00,39.4,30.1,30.01,NW,315,0.0,0.0,69,0.00,,OVC011,0.00,VWS V14.01,2013-03-28 16:35:00,
2013-03-28 12:40:00,39.7,30.4,30.01,WNW,302,3.1,3.1,69,0.00,,OVC011,0.00,VWS V14.01,2013-03-28 16:40:00,
2013-03-28 12:45:00,39.7,29.3,30.01,NW,308,0.0,0.0,66,0.00,,OVC015,0.00,VWS V14.01,2013-03-28 16:45:00,
2013-03-28 12:50:00,40.6,28.3,30.01,NNW,332,3.6,3.6,61,0.00,,OVC015,0.00,VWS V14.01,2013-03-28 16:50:00,
2013-03-28 12:55:00,40.5,27.7,30.01,NNW,334,4.9,4.9,60,0.00,,OVC015,0.00,VWS V14.01,2013-03-28 16:55:00,
2013-03-28 13:00:00,40.3,27.9,30.01,SW,231,2.7,2.7,61,0.00,,OVC015,0.00,VWS V14.01,2013-03-28 17:00:00,
2013-03-28 13:05:00,40.3,27.9,30.01,SSW,192,0.0,0.0,61,0.00,,OVC015,0.00,VWS V14.01,2013-03-28 17:05:00,
2013-03-28 13:10:00,40.6,28.6,30.01,SSW,192,0.0,0.0,62,0.00,,OVC015,0.00,VWS V14.01,2013-03-28 17:10:00,
2013-03-28 13:15:00,41.0,28.2,30.01,NW,304,0.0,0.0,60,0.00,,OVC015,0.00,VWS V14.01,2013-03-28 17:15:00,
2013-03-28 13:20:00,41.0,28.2,30.01,NNE,27,3.1,3.1,60,0.00,,OVC015,0.00,VWS V14.01,2013-03-28 17:20:00,
2013-03-28 13:25:00,40.8,28.0,30.01,WSW,242,3.1,3.1,60,0.00,,OVC015,0.00,VWS V14.01,2013-03-28 17:25:00,
2013-03-28 13:30:00,40.8,28.0,30.01,North,353,4.0,4.0,60,0.00,,OVC015,0.00,VWS V14.01,2013-03-28 17:30:00,
2013-03-28 13:35:00,41.2,28.0,30.01,NNW,329,0.0,3.1,59,0.00,,OVC015,0.00,VWS V14.01,2013-03-28 17:35:00,
2013-03-28 13:40:00,41.2,28.0,30.01,West,261,5.4,5.4,59,0.00,,OVC015,0.00,VWS V14.01,2013-03-28 17:40:00,
2013-03-28 13:45:00,41.2,28.0,30.01,WNW,296,5.4,5.4,59,0.00,,OVC015,0.00,VWS V14.01,2013-03-28 17:45:00,
2013-03-28 13:50:00,40.8,28.0,30.01,WSW,237,2.2,2.2,60,0.00,,OVC015,0.00,VWS V14.01,2013-03-28 17:50:00,
2013-03-28 13:55:00,41.0,28.2,30.01,West,281,4.9,4.9,60,0.00,,OVC015,0.00,VWS V14.01,2013-03-28 17:55:00,
2013-03-28 14:00:00,41.0,28.2,30.01,NW,312,2.7,2.7,60,0.00,,OVC015,0.00,VWS V14.01,2013-03-28 18:00:00,
2013-03-28 14:05:00,41.0,28.2,30.01,WNW,294,4.0,4.0,60,0.00,,OVC015,0.00,VWS V14.01,2013-03-28 18:05:00,
2013-03-28 14:10:00,41.0,27.8,30.01,SE,143,0.0,0.0,59,0.00,,OVC015,0.00,VWS V14.01,2013-03-28 18:10:00,
2013-03-28 14:16:00,42.1,28.8,30.01,NNW,334,3.6,3.6,59,0.00,,OVC015,0.00,VWS V14.01,2013-03-28 18:16:00,
2013-03-28 14:21:00,42.1,28.8,30.01,West,280,2.2,2.2,59,0.00,,OVC015,0.00,VWS V14.01,2013-03-28 18:21:00,
2013-03-28 14:26:00,43.3,29.6,30.01,North,353,4.0,4.0,58,0.00,,OVC015,0.00,VWS V14.01,2013-03-28 18:26:00,
2013-03-28 14:31:00,43.3,29.6,30.01,North,349,3.1,3.1,58,0.00,,OVC015,0.00,VWS V14.01,2013-03-28 18:31:00,
2013-03-28 14:36:00,43.3,27.4,30.01,North,4,5.4,5.4,53,0.00,,OVC015,0.00,VWS V14.01,2013-03-28 18:36:00,
2013-03-28 14:41:00,43.3,27.4,30.01,SW,216,2.7,2.7,53,0.00,,OVC044,0.00,VWS V14.01,2013-03-28 18:41:00,
2013-03-28 14:46:00,42.1,26.2,30.01,WNW,297,2.7,2.7,53,0.00,,OVC044,0.00,VWS V14.01,2013-03-28 18:46:00,
2013-03-28 14:51:00,41.5,26.6,30.01,NNW,334,5.8,5.8,55,0.00,,OVC044,0.00,VWS V14.01,2013-03-28 18:51:00,
2013-03-28 14:56:00,41.7,27.2,30.01,SSE,153,3.1,5.8,56,0.00,,OVC044,0.00,VWS V14.01,2013-03-28 18:56:00,
2013-03-28 15:01:00,43.0,28.8,30.01,NNW,332,2.7,2.7,57,0.00,,OVC044,0.00,VWS V14.01,2013-03-28 19:01:00,
2013-03-28 15:06:00,43.3,28.3,30.01,SW,225,3.1,3.1,55,0.00,,OVC044,0.00,VWS V14.01,2013-03-28 19:06:00,
2013-03-28 15:11:00,43.2,27.7,30.01,South,175,3.1,3.1,54,0.00,,OVC044,0.00,VWS V14.01,2013-03-28 19:11:00,
2013-03-28 15:16:00,42.8,26.9,30.01,North,6,7.6,7.6,53,0.00,,OVC044,0.00,VWS V14.01,2013-03-28 19:16:00,
2013-03-28 15:21:00,42.4,26.5,30.01,WNW,292,3.1,3.1,53,0.00,,OVC044,0.00,VWS V14.01,2013-03-28 19:21:00,
2013-03-28 15:26:00,41.9,26.5,30.01,SW,234,5.4,5.4,54,0.00,,OVC044,0.00,VWS V14.01,2013-03-28 19:26:00,
2013-03-28 15:32:00,41.7,26.8,30.01,WNW,292,3.6,3.6,55,0.00,,OVC044,0.00,VWS V14.01,2013-03-28 19:32:00,
2013-03-28 15:37:00,41.7,26.8,30.01,NW,306,0.0,0.0,55,0.00,,OVC044,0.00,VWS V14.01,2013-03-28 19:37:00,
2013-03-28 15:42:00,41.7,26.8,30.01,SW,227,3.6,3.6,55,0.00,,OVC042,0.00,VWS V14.01,2013-03-28 19:42:00,
2013-03-28 15:47:00,41.7,27.2,30.01,NNW,343,4.9,4.9,56,0.00,,OVC042,0.00,VWS V14.01,2013-03-28 19:47:00,
2013-03-28 15:52:00,41.7,26.8,30.01,WSW,242,2.7,2.7,55,0.00,,OVC042,0.00,VWS V14.01,2013-03-28 19:52:00,
2013-03-28 15:57:00,41.7,26.3,30.01,NW,316,0.0,5.4,54,0.00,,OVC042,0.00,VWS V14.01,2013-03-28 19:57:00,
2013-03-28 16:02:00,41.5,26.1,30.01,North,5,4.0,4.0,54,0.00,,OVC042,0.00,VWS V14.01,2013-03-28 20:02:00,
2013-03-28 16:07:00,41.4,25.5,30.01,NNW,338,3.1,3.1,53,0.00,,OVC042,0.00,VWS V14.01,2013-03-28 20:07:00,
2013-03-28 16:12:00,41.0,25.2,30.01,NNW,348,5.4,5.4,53,0.00,,OVC042,0.00,VWS V14.01,2013-03-28 20:12:00,
2013-03-28 16:17:00,40.8,25.5,30.01,SW,235,3.1,3.1,54,0.00,,OVC042,0.00,VWS V14.01,2013-03-28 20:17:00,
2013-03-28 16:22:00,40.8,25.5,30.01,WSW,237,4.0,4.0,54,0.00,,OVC042,0.00,VWS V14.01,2013-03-28 20:22:00,
2013-03-28 16:27:00,40.8,25.9,30.01,North,357,5.8,5.8,55,0.00,,OVC042,0.00,VWS V14.01,2013-03-28 20:27:00,
2013-03-28 16:32:00,40.8,25.9,30.01,WNW,302,0.0,0.0,55,0.00,,OVC042,0.00,VWS V14.01,2013-03-28 20:32:00,
2013-03-28 16:37:00,40.8,26.4,30.01,SSW,208,0.0,0.0,56,0.00,,OVC042,0.00,VWS V14.01,2013-03-28 20:37:00,
2013-03-28 16:42:00,41.0,26.5,30.01,NW,305,0.0,0.0,56,0.00,,OVC042,0.00,VWS V14.01,2013-03-28 20:42:00,
2013-03-28 16:47:00,41.0,26.5,30.01,WSW,249,3.6,3.6,56,0.00,,OVC042,0.00,VWS V14.01,2013-03-28 20:47:00,
2013-03-28 16:52:00,41.0,26.5,30.01,WSW,252,3.1,3.1,56,0.00,,OVC037,0.00,VWS V14.01,2013-03-28 20:52:00,
2013-03-28 16:57:00,40.8,26.4,30.01,SW,230,0.0,0.0,56,0.00,,OVC037,0.00,VWS V14.01,2013-03-28 20:57:00,
2013-03-28 17:02:00,40.6,26.2,30.01,South,191,2.7,2.7,56,0.00,,OVC037,0.00,VWS V14.01,2013-03-28 21:02:00,
2013-03-28 17:07:00,40.5,25.6,30.01,SW,229,4.5,4.5,55,0.00,,OVC037,0.00,VWS V14.01,2013-03-28 21:07:00,
2013-03-28 17:12:00,40.5,25.6,30.01,West,263,0.0,3.1,55,0.00,,OVC037,0.00,VWS V14.01,2013-03-28 21:12:00,
2013-03-28 17:17:00,40.3,25.4,30.01,WNW,289,0.0,0.0,55,0.00,,OVC037,0.00,VWS V14.01,2013-03-28 21:17:00,
2013-03-28 17:22:00,40.5,25.6,30.01,NNE,25,0.0,0.0,55,0.00,,OVC037,0.00,VWS V14.01,2013-03-28 21:22:00,
2013-03-28 17:27:00,40.5,25.6,30.01,SW,222,0.0,0.0,55,0.00,,OVC037,0.00,VWS V14.01,2013-03-28 21:27:00,
2013-03-28 17:32:00,40.3,25.4,30.01,NNW,345,3.1,3.1,55,0.00,,OVC037,0.00,VWS V14.01,2013-03-28 21:32:00,
2013-03-28 17:37:00,40.1,25.2,30.01,WNW,300,0.0,0.0,55,0.00,,OVC037,0.00,VWS V14.01,2013-03-28 21:37:00,
2013-03-28 17:42:00,39.9,25.1,30.01,South,181,0.0,0.0,55,0.00,,OVC037,0.00,VWS V14.01,2013-03-28 21:42:00,
2013-03-28 17:47:00,39.7,24.9,30.01,WSW,241,0.0,0.0,55,0.00,,OVC037,0.00,VWS V14.01,2013-03-28 21:47:00,
2013-03-28 17:52:00,39.7,24.9,30.01,NW,313,0.0,0.0,55,0.00,,OVC037,0.00,VWS V14.01,2013-03-28 21:52:00,
2013-03-28 17:58:00,39.7,24.9,30.01,NW,317,0.0,0.0,55,0.00,,OVC037,0.00,VWS V14.01,2013-03-28 21:58:00,
2013-03-28 18:03:00,39.4,24.6,30.01,NNW,345,2.7,2.7,55,0.00,,OVC037,0.00,VWS V14.01,2013-03-28 22:03:00,
2013-03-28 18:08:00,39.4,24.6,30.01,NNW,340,0.0,0.0,55,0.00,,OVC037,0.00,VWS V14.01,2013-03-28 22:08:00,
2013-03-28 18:13:00,39.4,24.6,30.01,SW,229,0.0,0.0,55,0.00,,OVC037,0.00,VWS V14.01,2013-03-28 22:13:00,
2013-03-28 18:18:00,39.4,24.6,30.01,SSW,209,0.0,0.0,55,0.00,,OVC037,0.00,VWS V14.01,2013-03-28 22:18:00,
2013-03-28 18:23:00,39.4,24.6,30.01,SSW,210,0.0,0.0,55,0.00,,OVC037,0.00,VWS V14.01,2013-03-28 22:23:00,
2013-03-28 18:28:00,39.2,24.4,30.01,NNW,332,0.0,3.1,55,0.00,,OVC037,0.00,VWS V14.01,2013-03-28 22:28:00,
2013-03-28 18:33:00,39.2,24.4,30.01,NNW,332,0.0,0.0,55,0.00,,OVC037,0.00,VWS V14.01,2013-03-28 22:33:00,
2013-03-28 18:38:00,39.2,24.4,30.01,WNW,285,0.0,0.0,55,0.00,,OVC037,0.00,VWS V14.01,2013-03-28 22:38:00,
2013-03-28 18:43:00,39.0,24.7,30.01,WNW,285,0.0,0.0,56,0.00,,OVC039,0.00,VWS V14.01,2013-03-28 22:43:00,
2013-03-28 18:48:00,39.0,24.7,30.01,West,281,0.0,0.0,56,0.00,,OVC039,0.00,VWS V14.01,2013-03-28 22:48:00,
2013-03-28 18:53:00,38.8,24.5,30.01,WNW,293,0.0,0.0,56,0.00,,OVC039,0.00,VWS V14.01,2013-03-28 22:53:00,
2013-03-28 18:58:00,38.8,24.5,30.01,WSW,250,0.0,0.0,56,0.00,,OVC039,0.00,VWS V14.01,2013-03-28 22:58:00,
2013-03-28 19:03:00,38.7,24.3,30.01,WSW,250,0.0,0.0,56,0.00,,OVC039,0.00,VWS V14.01,2013-03-28 23:03:00,
2013-03-28 19:08:00,38.5,24.2,30.01,WSW,244,0.0,0.0,56,0.00,,OVC039,0.00,VWS V14.01,2013-03-28 23:08:00,
2013-03-28 19:13:00,38.3,24.4,30.01,WSW,244,0.0,0.0,57,0.00,,OVC039,0.00,VWS V14.01,2013-03-28 23:13:00,
2013-03-28 19:18:00,38.1,24.2,30.01,WSW,244,0.0,0.0,57,0.00,,OVC039,0.00,VWS V14.01,2013-03-28 23:18:00,
2013-03-28 19:23:00,38.1,24.2,30.01,SW,228,0.0,0.0,57,0.00,,OVC039,0.00,VWS V14.01,2013-03-28 23:23:00,
2013-03-28 19:28:00,38.1,24.7,30.01,SW,228,0.0,0.0,58,0.00,,OVC039,0.00,VWS V14.01,2013-03-28 23:28:00,
2013-03-28 19:33:00,37.9,24.5,30.01,SW,227,0.0,0.0,58,0.00,,OVC039,0.00,VWS V14.01,2013-03-28 23:33:00,
2013-03-28 19:38:00,37.6,24.2,30.01,SW,227,0.0,0.0,58,0.00,,OVC039,0.00,VWS V14.01,2013-03-28 23:38:00,
2013-03-28 19:43:00,37.2,24.2,30.01,SW,227,0.0,0.0,59,0.00,,OVC041,0.00,VWS V14.01,2013-03-28 23:43:00,
2013-03-28 19:48:00,36.9,23.9,30.01,SW,227,0.0,0.0,59,0.00,,OVC041,0.00,VWS V14.01,2013-03-28 23:48:00,
2013-03-28 19:53:00,36.5,24.0,30.01,SW,228,0.0,0.0,60,0.00,,OVC041,0.00,VWS V14.01,2013-03-28 23:53:00,
2013-03-28 19:58:00,36.3,24.2,30.01,NW,317,0.0,0.0,61,0.00,,OVC041,0.00,VWS V14.01,2013-03-28 23:58:00,
2013-03-28 20:03:00,36.1,24.0,30.01,NW,317,0.0,0.0,61,0.00,,OVC041,0.00,VWS V14.01,2013-03-29 00:03:00,
2013-03-28 20:08:00,36.0,24.6,30.01,NNW,340,0.0,0.0,63,0.00,,OVC041,0.00,VWS V14.01,2013-03-29 00:08:00,
2013-03-28 20:13:00,36.0,26.4,30.01,NNE,17,5.8,5.8,68,0.00,,OVC043,0.00,VWS V14.01,2013-03-29 00:13:00,
2013-03-28 20:18:00,36.1,28.3,30.01,NNW,340,5.4,5.4,73,0.00,,OVC043,0.00,VWS V14.01,2013-03-29 00:18:00,
2013-03-28 20:23:00,36.3,28.5,30.01,NNW,340,5.4,5.4,73,0.00,,OVC043,0.00,VWS V14.01,2013-03-29 00:23:00,
2013-03-28 20:28:00,36.1,28.3,30.01,SW,224,0.0,0.0,73,0.00,,OVC043,0.00,VWS V14.01,2013-03-29 00:28:00,
2013-03-28 20:33:00,36.1,28.7,30.01,SW,224,0.0,0.0,74,0.00,,OVC043,0.00,VWS V14.01,2013-03-29 00:33:00,
2013-03-28 20:38:00,36.1,28.7,30.01,SW,224,0.0,0.0,74,0.00,,OVC043,0.00,VWS V14.01,2013-03-29 00:38:00,
2013-03-28 20:43:00,36.0,28.5,30.01,SW,224,0.0,0.0,74,0.00,,OVC043,0.00,VWS V14.01,2013-03-29 00:43:00,
2013-03-28 20:48:00,35.8,28.3,30.01,SW,224,0.0,0.0,74,0.00,,OVC043,0.00,VWS V14.01,2013-03-29 00:48:00,
2013-03-28 20:53:00,35.8,28.6,30.01,NNW,328,0.0,0.0,75,0.00,,OVC090,0.00,VWS V14.01,2013-03-29 00:53:00,
2013-03-28 20:58:00,36.0,28.8,30.01,NNW,328,0.0,0.0,75,0.00,,OVC090,0.00,VWS V14.01,2013-03-29 00:58:00,
2013-03-28 21:03:00,36.0,28.8,30.01,WNW,292,0.0,0.0,75,0.00,,OVC090,0.00,VWS V14.01,2013-03-29 01:03:00,
2013-03-28 21:08:00,35.8,28.6,30.01,WNW,292,0.0,0.0,75,0.00,,OVC090,0.00,VWS V14.01,2013-03-29 01:08:00,
2013-03-28 21:13:00,35.8,28.6,30.01,SW,234,0.0,0.0,75,0.00,,OVC090,0.00,VWS V14.01,2013-03-29 01:13:00,
2013-03-28 21:18:00,35.6,28.5,30.01,WSW,237,0.0,0.0,75,0.00,,OVC090,0.00,VWS V14.01,2013-03-29 01:18:00,
2013-03-28 21:23:00,35.6,28.8,30.01,SW,236,0.0,0.0,76,0.00,,OVC090,0.00,VWS V14.01,2013-03-29 01:23:00,
2013-03-28 21:28:00,35.4,28.6,30.01,SW,236,0.0,0.0,76,0.00,,OVC090,0.00,VWS V14.01,2013-03-29 01:28:00,
2013-03-28 21:33:00,35.2,28.5,30.01,SW,236,0.0,0.0,76,0.00,,OVC090,0.00,VWS V14.01,2013-03-29 01:33:00,
2013-03-28 21:38:00,35.1,28.3,30.01,SW,236,0.0,0.0,76,0.00,,OVC090,0.00,VWS V14.01,2013-03-29 01:38:00,
2013-03-28 21:43:00,34.9,28.1,30.01,SW,236,0.0,0.0,76,0.00,,OVC090,0.00,VWS V14.01,2013-03-29 01:43:00,
2013-03-28 21:48:00,34.5,28.1,30.01,SW,236,0.0,0.0,77,0.00,,OVC090,0.00,VWS V14.01,2013-03-29 01:48:00,
2013-03-28 21:53:00,34.3,27.9,30.01,SW,236,0.0,0.0,77,0.00,,OVC090,0.00,VWS V14.01,2013-03-29 01:53:00,
2013-03-28 21:59:00,34.0,27.5,30.01,SW,236,0.0,0.0,77,0.00,,OVC090,0.00,VWS V14.01,2013-03-29 01:59:00,
2013-03-28 22:04:00,33.8,27.4,30.01,SW,236,0.0,0.0,77,0.00,,OVC090,0.00,VWS V14.01,2013-03-29 02:04:00,
2013-03-28 22:09:00,33.6,27.5,30.01,SW,236,0.0,0.0,78,0.00,,OVC090,0.00,VWS V14.01,2013-03-29 02:09:00,
2013-03-28 22:14:00,33.6,27.5,30.01,SW,236,0.0,0.0,78,0.00,,OVC090,0.00,VWS V14.01,2013-03-29 02:14:00,
2013-03-28 22:19:00,33.3,27.1,30.01,SW,236,0.0,0.0,78,0.00,,OVC090,0.00,VWS V14.01,2013-03-29 02:19:00,
2013-03-28 22:24:00,33.1,27.0,30.01,SW,236,0.0,0.0,78,0.00,,OVC090,0.00,VWS V14.01,2013-03-29 02:24:00,
2013-03-28 22:29:00,32.7,26.6,30.01,SW,236,0.0,0.0,78,0.00,,OVC090,0.00,VWS V14.01,2013-03-29 02:29:00,
2013-03-28 22:34:00,32.5,26.8,30.01,SW,236,0.0,0.0,79,0.00,,OVC090,0.00,VWS V14.01,2013-03-29 02:34:00,
2013-03-28 22:39:00,32.2,26.4,30.01,SW,236,0.0,0.0,79,0.00,,OVC090,0.00,VWS V14.01,2013-03-29 02:39:00,
2013-03-28 22:44:00,31.8,26.1,30.01,SW,236,0.0,0.0,79,0.00,,OVC020,0.00,VWS V14.01,2013-03-29 02:44:00,
2013-03-28 22:49:00,31.5,25.7,30.01,SW,236,0.0,0.0,79,0.00,,OVC020,0.00,VWS V14.01,2013-03-29 02:49:00,
2013-03-28 22:54:00,31.1,25.4,30.01,NNW,340,0.0,0.0,79,0.00,,OVC020,0.00,VWS V14.01,2013-03-29 02:54:00,
2013-03-28 22:59:00,30.9,25.2,30.01,NNW,340,0.0,0.0,79,0.00,,OVC020,0.00,VWS V14.01,2013-03-29 02:59:00,
2013-03-28 23:04:00,30.6,24.8,30.01,NNW,344,0.0,0.0,79,0.00,,OVC020,0.00,VWS V14.01,2013-03-29 03:04:00,
2013-03-28 23:09:00,30.4,24.7,30.01,NNW,344,0.0,0.0,79,0.00,,OVC020,0.00,VWS V14.01,2013-03-29 03:09:00,
2013-03-28 23:14:00,30.2,24.8,30.01,NNW,344,0.0,0.0,80,0.00,,OVC020,0.00,VWS V14.01,2013-03-29 03:14:00,
2013-03-28 23:19:00,30.0,24.6,30.01,NNW,344,0.0,0.0,80,0.00,,OVC020,0.00,VWS V14.01,2013-03-29 03:19:00,
2013-03-28 23:24:00,29.7,24.3,30.01,NNW,344,0.0,0.0,80,0.00,,OVC020,0.00,VWS V14.01,2013-03-29 03:24:00,
2013-03-28 23:29:00,29.5,24.1,30.01,NNW,344,0.0,0.0,80,0.00,,OVC020,0.00,VWS V14.01,2013-03-29 03:29:00,
2013-03-28 23:34:00,29.5,24.1,30.01,NNW,344,0.0,0.0,80,0.00,,OVC020,0.00,VWS V14.01,2013-03-29 03:34:00,
2013-03-28 23:39:00,29.5,24.4,30.01,NNW,344,0.0,0.0,81,0.00,,OVC020,0.00,VWS V14.01,2013-03-29 03:39:00,
2013-03-28 23:44:00,29.3,24.2,30.01,NNW,344,0.0,0.0,81,0.00,,OVC022,0.00,VWS V14.01,2013-03-29 03:44:00,
2013-03-28 23:49:00,29.3,24.2,30.01,NNW,344,0.0,0.0,81,0.00,,OVC022,0.00,VWS V14.01,2013-03-29 03:49:00,
2013-03-28 23:54:00,29.3,24.5,30.01,NNW,344,0.0,0.0,82,0.00,,OVC022,0.00,VWS V14.01,2013-03-29 03:54:00,
2013-03-28 23:59:00,29.5,24.7,30.01,NNW,344,0.0,0.0,82,0.00,,OVC022,0.00,VWS V14.01,2013-03-29 03:59:00,